Tracking 29892 objects as of 21-Nov-2024
HD Live streaming from Space Station
objects crossing your sky now

STARLINK-3994

Track STARLINK-3994 now!
10-day predictions
STARLINK-3994 is classified as:


NORAD ID: 52633
Int'l Code: 2022-052AM
Perigee: 545.8 km
Apogee: 548.0 km
Inclination: 53.2 °
Period: 95.4 minutes
Semi major axis: 6917 km
RCS: Unknown
Launch date: May 14, 2022
Source: United States (US)
Launch site: AIR FORCE EASTERN TEST RANGE (AFETR)
Your satellite tracking list
Your tracking list is empty




NASA's NSSDC Master Catalog

Two Line Element Set (TLE):
1 52633U 22052AM  24326.14694307 -.00001598  00000-0 -82321-4 0  9996
2 52633  53.2181 234.9351 0001535  77.8969 282.2195 15.08837526139881
Source of the keplerian elements: AFSPC